STARLINK-30489, 57974

Orbit data source: Space-Track

STARLINK-30489, 57974 is a payload satellite owned by SpaceX/Seattle (US) in LEO that was launched on Sat, 30 Sep 2023 UTC via an FALCON 9 launch vehicle from the Air Force Eastern Test Range (AFETR). Payload-class satellites include a variety of spacecraft equipped with specific instruments for various scientific and technological missions. These include communications satellites like Starlink; space stations such as the ISS; scientific satellites like the Hubble; Earth observation satellites from companies like Planet Labs, Umbra, and HawkEye 360; GPS; miniature CubeSats for education and research; and military/defense satellites.

Loading next visibility...
Identifier
57974, 2023-151L
Orbit
LEO
Country
Flag of USUS
Related business
Manufacturer
SpaceX/Seattle
Mission
Operational Commercial Communications
Bus & Motor
STARLINK V2M, Unknown motor
Mass
730 kg wet, ~700 kg dry
Launch date (UTC)
2023-09-30 (3 years ago)
Launch vehicle
FALCON 9
Launch site
Air Force Eastern Test Range (AFETR)
Object type
Payload
Rocket body
Debris
Shape & HBR
Box + 2 Pan, 17.7 m
Radar Cross Section
33.884 m², Large (>1 m²)

Expand to show TLE details & history
Last TLE update: 12 hours ago

TLE from 12 hours ago
0 STARLINK-30489
1 57974U 23151L   26130.00271902 -.00001092  00000-0 -30178-4 0  9994
2 57974  43.0066 349.7155 0001963 266.4166  93.6462 15.27564324145141
Epoch: 2026-05-10T00:03Z
TLE epoch observation values (Epoch: 2026-05-10T00:03:54.923Z)
Latitude
0.00004°
Longitude
120.92465°
Altitude
482.958 km
Speed
7.626 km/s
True Right ascension
23h 18m 51s
True Declination
0° 00' 00"
Sunlit
Object was in daylight at epoch
Visualization orbit readout
Latitude
Unknown
Longitude
Unknown
Altitude
Unknown
Speed
Unknown
Apparent Right ascension
Unknown
Apparent Declination
Unknown
Sunlit
N/A
Visualization observer readout
Local Sidereal Time
19:51:40
Azimuth
Unknown
Elevation
Unknown
Doppler factor
Unknown
Orbital elements
Apogee altitude
486.387 km
Perigee altitude
483.693 km
Semi-major axis
6,863.177 km
Eccentricity
0.0002
Inclination
43.0066°
RAAN
349.7155°
Arg. of periapsis
266.4166°
True anomaly
93.66865°
Mean anomaly
93.6462°
Eccentric anomaly
93.65742°
Mean motion
3.81729 °/min
Orbital period
94.31 mins
BSTAR
-0.000030178
Loading maneuver chart data...
Computing Atmospheric mass density...
Loading historical data...
Loading historical data...
Loading historical data...
Loading historical data...
Loading historical data...
Loading historical data...
Loading historical data...

Documentation

Showing up to 5 results
|